When you browse on this site, cookies collect data to enhance your experience and personalize the content and advertising you see.
Visit our Privacy Policy to learn more. By continuing to use the site, you agree to this use of cookies and data.
  • Em Portugal
  • Lista de países
  • Para 7 dias
  • Temperatura da água
  • Mapas de satélite
  • Mapa do tempo
  • Widgets de tempo
  • user-avatar
    Iniciar Sessão

    Previsão horária em Mbandaka

    Hoje, 22 Março, Sexta-feira

    Tempo Temperatura Precipitação Vento Pressão Humidade
    00:00 +29°C° 0.1 mm 1 m/s 729 mmHg 66%
    01:00 +29°C° 0.1 mm 1 m/s 729 mmHg 67%
    02:00 +27°C° 0.7 mm 1 m/s 729 mmHg 75%
    03:00 +26°C° 0.7 mm 1 m/s 729 mmHg 84%
    04:00 +24°C° 0.7 mm 1 m/s 728 mmHg 92%
    05:00 +25°C° 0.4 mm 1 m/s 729 mmHg 90%
    06:00 +25°C° 0.4 mm 1 m/s 729 mmHg 89%
    07:00 +26°C° 0.4 mm 1 m/s 730 mmHg 87%
    08:00 +29°C° 0 mm 1 m/s 730 mmHg 72%
    09:00 +33°C° 0 mm 1 m/s 730 mmHg 56%
    10:00 +37°C° 0 mm 2 m/s 731 mmHg 41%
    11:00 +38°C° 0 mm 2 m/s 730 mmHg 38%
    12:00 +39°C° 0 mm 1 m/s 729 mmHg 35%
    13:00 +41°C° 0 mm 1 m/s 728 mmHg 31%
    14:00 +40°C° 0 mm 1 m/s 728 mmHg 33%
    15:00 +39°C° 0 mm 1 m/s 727 mmHg 34%
    16:00 +36°C° 0 mm 0 m/s 727 mmHg 36%
    17:00 +36°C° 0 mm 1 m/s 727 mmHg 41%
    18:00 +33°C° 0 mm 1 m/s 727 mmHg 47%
    19:00 +31°C° 0 mm 1 m/s 726 mmHg 53%
    20:00 +31°C° 0 mm 1 m/s 727 mmHg 54%
    21:00 +30°C° 0 mm 1 m/s 728 mmHg 56%
    22:00 +27°C° 0 mm 0 m/s 728 mmHg 58%
    23:00 +28°C° 1 mm 1 m/s 728 mmHg 69%

    Amanhã, 23 Março, Sábado

    Tempo Temperatura Precipitação Vento Pressão Humidade
    00:00 +26°C° 1 mm 1 m/s 729 mmHg 81%
    01:00 +25°C° 1 mm 1 m/s 729 mmHg 92%
    02:00 +25°C° 0.8 mm 1 m/s 729 mmHg 93%
    03:00 +24°C° 0.8 mm 2 m/s 729 mmHg 94%
    04:00 +24°C° 0.8 mm 2 m/s 729 mmHg 95%
    05:00 +25°C° 0.1 mm 2 m/s 729 mmHg 94%
    06:00 +25°C° 0.1 mm 1 m/s 730 mmHg 93%
    07:00 +25°C° 0.1 mm 1 m/s 730 mmHg 91%
    08:00 +28°C° 0 mm 2 m/s 730 mmHg 80%
    09:00 +30°C° 0 mm 2 m/s 731 mmHg 68%
    10:00 +34°C° 0 mm 3 m/s 732 mmHg 57%
    11:00 +34°C° 0 mm 3 m/s 731 mmHg 54%
    12:00 +35°C° 0 mm 2 m/s 730 mmHg 51%
    13:00 +36°C° 0 mm 2 m/s 729 mmHg 48%
    14:00 +36°C° 0 mm 2 m/s 729 mmHg 47%
    15:00 +36°C° 0 mm 2 m/s 728 mmHg 47%
    16:00 +36°C° 0 mm 2 m/s 728 mmHg 46%
    17:00 +35°C° 0.1 mm 2 m/s 728 mmHg 54%
    18:00 +33°C° 0.1 mm 3 m/s 728 mmHg 61%
    19:00 +30°C° 0.1 mm 3 m/s 728 mmHg 68%
    20:00 +29°C° 0.2 mm 2 m/s 728 mmHg 73%
    21:00 +28°C° 0.2 mm 2 m/s 729 mmHg 78%
    22:00 +27°C° 0.2 mm 1 m/s 730 mmHg 82%
    23:00 +26°C° 0.7 mm 1 m/s 730 mmHg 86%

    Depois de amanhã, 24 Março, Domingo

    Tempo Temperatura Precipitação Vento Pressão Humidade
    00:00 +26°C° 0.7 mm 1 m/s 730 mmHg 90%
    01:00 +25°C° 0.7 mm 1 m/s 730 mmHg 94%
    02:00 +25°C° 0.5 mm 1 m/s 730 mmHg 94%
    03:00 +25°C° 0.5 mm 2 m/s 729 mmHg 95%
    04:00 +25°C° 0.5 mm 3 m/s 729 mmHg 95%
    05:00 +25°C° 0.1 mm 2 m/s 730 mmHg 94%
    06:00 +25°C° 0.1 mm 2 m/s 731 mmHg 92%
    07:00 +25°C° 0.1 mm 2 m/s 731 mmHg 91%
    08:00 +26°C° 0.2 mm 2 m/s 732 mmHg 85%
    09:00 +28°C° 0.2 mm 1 m/s 732 mmHg 78%
    10:00 +29°C° 0.2 mm 1 m/s 733 mmHg 72%
    11:00 +30°C° 0 mm 2 m/s 732 mmHg 67%
    12:00 +30°C° 0 mm 3 m/s 731 mmHg 63%
    13:00 +31°C° 0 mm 3 m/s 730 mmHg 59%
    14:00 +33°C° 0 mm 3 m/s 729 mmHg 55%
    15:00 +34°C° 0 mm 3 m/s 729 mmHg 52%
    16:00 +35°C° 0 mm 2 m/s 728 mmHg 48%
    17:00 +32°C° 0 mm 2 m/s 728 mmHg 56%
    18:00 +30°C° 0 mm 2 m/s 728 mmHg 64%
    19:00 +28°C° 0 mm 1 m/s 728 mmHg 72%
    20:00 +27°C° 0 mm 1 m/s 729 mmHg 75%
    21:00 +26°C° 0 mm 1 m/s 729 mmHg 78%
    22:00 +26°C° 0 mm 1 m/s 730 mmHg 81%
    23:00 +25°C° 0.1 mm 1 m/s 730 mmHg 83%

    25 Março, Segunda-feira

    Tempo Temperatura Precipitação Vento Pressão Humidade
    00:00 +23°C° 0.1 mm 0 m/s 730 mmHg 85%
    01:00 +23°C° 0.1 mm 0 m/s 730 mmHg 87%
    02:00 +24°C° 0.5 mm 1 m/s 730 mmHg 90%
    03:00 +24°C° 0.5 mm 1 m/s 730 mmHg 93%
    04:00 +24°C° 0.5 mm 1 m/s 730 mmHg 96%
    05:00 +24°C° 0 mm 1 m/s 731 mmHg 96%
    06:00 +24°C° 0 mm 1 m/s 731 mmHg 95%
    07:00 +24°C° 0 mm 1 m/s 732 mmHg 95%
    08:00 +26°C° 0 mm 1 m/s 732 mmHg 84%
    09:00 +28°C° 0 mm 2 m/s 733 mmHg 74%
    10:00 +30°C° 0 mm 2 m/s 733 mmHg 64%
    11:00 +32°C° 0 mm 2 m/s 732 mmHg 59%
    12:00 +34°C° 0 mm 2 m/s 731 mmHg 53%
    13:00 +35°C° 0 mm 2 m/s 730 mmHg 48%
    14:00 +35°C° 0 mm 2 m/s 730 mmHg 46%
    15:00 +36°C° 0 mm 2 m/s 729 mmHg 45%
    16:00 +36°C° 0 mm 2 m/s 729 mmHg 43%
    17:00 +33°C° 0 mm 1 m/s 729 mmHg 50%
    18:00 +31°C° 0 mm 1 m/s 729 mmHg 57%
    19:00 +29°C° 0 mm 1 m/s 729 mmHg 64%
    20:00 +28°C° 0 mm 1 m/s 730 mmHg 68%
    21:00 +25°C° 0 mm 0 m/s 730 mmHg 72%
    22:00 +24°C° 0 mm 0 m/s 730 mmHg 76%
    23:00 +24°C° 0 mm 0 m/s 730 mmHg 77%

    26 Março, Terça-feira

    Tempo Temperatura Precipitação Vento Pressão Humidade
    00:00 +24°C° 0 mm 0 m/s 729 mmHg 77%
    01:00 +24°C° 0 mm 0 m/s 729 mmHg 78%
    02:00 +23°C° 0.4 mm 0 m/s 729 mmHg 82%
    03:00 +23°C° 0.4 mm 0 m/s 729 mmHg 86%
    04:00 +22°C° 0.4 mm 0 m/s 729 mmHg 91%
    05:00 +23°C° 0.1 mm 0 m/s 730 mmHg 90%
    06:00 +23°C° 0.1 mm 0 m/s 731 mmHg 89%
    07:00 +24°C° 0.1 mm 0 m/s 731 mmHg 88%
    08:00 +29°C° 0 mm 1 m/s 732 mmHg 75%
    09:00 +32°C° 0 mm 1 m/s 732 mmHg 62%
    10:00 +36°C° 0 mm 2 m/s 732 mmHg 48%
    11:00 +36°C° 0 mm 1 m/s 732 mmHg 43%
    12:00 +39°C° 0 mm 1 m/s 731 mmHg 38%
    13:00 +40°C° 0 mm 1 m/s 730 mmHg 33%
    14:00 +36°C° 1 mm 1 m/s 729 mmHg 47%
    15:00 +32°C° 1 mm 2 m/s 729 mmHg 61%
    16:00 +29°C° 1 mm 2 m/s 728 mmHg 75%
    17:00 +28°C° 7.9 mm 2 m/s 729 mmHg 82%
    18:00 +26°C° 7.9 mm 2 m/s 730 mmHg 89%
    19:00 +25°C° 7.9 mm 2 m/s 730 mmHg 97%
    20:00 +25°C° 0.1 mm 1 m/s 731 mmHg 97%
    21:00 +25°C° 0.1 mm 1 m/s 731 mmHg 97%
    22:00 +25°C° 0.1 mm 1 m/s 731 mmHg 97%
    23:00 +25°C° 0 mm 1 m/s 731 mmHg 97%

    27 Março, Quarta-feira

    Tempo Temperatura Precipitação Vento Pressão Humidade
    00:00 +22°C° 0 mm 0 m/s 730 mmHg 97%
    01:00 +22°C° 0 mm 0 m/s 730 mmHg 97%
    02:00 +22°C° 0 mm 0 m/s 730 mmHg 97%
    03:00 +22°C° 0 mm 0 m/s 730 mmHg 97%
    04:00 +24°C° 0 mm 1 m/s 730 mmHg 97%
    05:00 +23°C° 0 mm 0 m/s 731 mmHg 95%
    06:00 +23°C° 0 mm 0 m/s 731 mmHg 93%
    07:00 +24°C° 0 mm 0 m/s 732 mmHg 92%
    08:00 +27°C° 0 mm 0 m/s 732 mmHg 76%
    09:00 +33°C° 0 mm 1 m/s 732 mmHg 61%
    10:00 +36°C° 0 mm 1 m/s 733 mmHg 45%
    11:00 +39°C° 0 mm 1 m/s 732 mmHg 40%
    12:00 +40°C° 0 mm 1 m/s 731 mmHg 35%
    13:00 +41°C° 0 mm 1 m/s 730 mmHg 30%
    14:00 +40°C° 0 mm 1 m/s 729 mmHg 35%
    15:00 +37°C° 0 mm 1 m/s 729 mmHg 40%
    16:00 +34°C° 0 mm 0 m/s 728 mmHg 45%
    17:00 +32°C° 0 mm 0 m/s 729 mmHg 49%
    18:00 +30°C° 0 mm 0 m/s 729 mmHg 53%
    19:00 +28°C° 0 mm 0 m/s 729 mmHg 58%
    20:00 +28°C° 0 mm 0 m/s 730 mmHg 60%
    21:00 +27°C° 0 mm 0 m/s 730 mmHg 61%
    22:00 +27°C° 0 mm 0 m/s 730 mmHg 63%
    23:00 +26°C° 0 mm 0 m/s 730 mmHg 65%
    Mostrar mais